Weather History for New Orleans Lakefront, LA

Change the Weather History Date:

Sunday, April 14, 2013

  Actual Average Record
Temperature  
Mean Temperature 68 °F 69 °F  
Max Temperature 76 °F 78 °F 87 °F (2001)
Min Temperature 59 °F 60 °F 44 °F (1980)
Degree Days  
Heating Degree Days 0 1  
Month to date heating degree days 23 24  
Since 1 July heating degree days 1121 1269  
Cooling Degree Days 3 5  
Month to date cooling degree days 44 56  
Year to date cooling degree days 112 156  
Growing Degree Days 16 (Base 50)    
Moisture  
Dew Point 60 °F    
Average Humidity 75    
Maximum Humidity 93    
Minimum Humidity 57    
Precipitation  
Precipitation 2.40 in 0.15 in 2.50 in (1991)
Month to date precipitation 5.75 2.11  
Year to date precipitation 20.63 17.11  
Snow  
Snow 0.00 in - - ()
Month to date snowfall 0.0  
Since 1 July snowfall 0.0  
Snow Depth 0.00 in    
Sea Level Pressure  
Sea Level Pressure 29.80 in    
Wind  
Wind Speed 10 mph (ENE)    
Max Wind Speed 35 mph    
Max Gust Speed 45 mph    
Visibility 6 miles    
Events Fog , Rain    
T = Trace of Precipitation, MM = Missing Value Source: NWS Daily Summary

Daily Weather History Graph

Daily Weather History Graph

Search for Another Location

Airport:

Trip Planner

Search our weather history database for the weather conditions in past years. The results will help you decide how hot, cold, wet, or windy it might be!

Date:

Astronomy

Apr. 14, 2013 Rise Set
Actual Time 6:34 AM CDT 7:26 PM CDT
Civil Twilight 6:09 AM CDT 7:51 PM CDT
Nautical Twilight 5:40 AM CDT 8:20 PM CDT
Astronomical Twilight 5:11 AM CDT 8:50 PM CDT
Moon 9:23 AM CDT (4/14) 11:27 PM CDT (4/14)
Length of Visible Light 13h 41m
Length of Day
12h 52m
Waxing Crescent, 17% of the Moon is Illuminated
Apr 14
Waxing Crescent
Apr 18
First Quarter
Apr 25
Full
May 2
Last Quarter
May 9
New

Hourly Weather History & Observations

Time (CDT) Temp. Dew Point Humidity Pressure Visibility Wind Dir Wind Speed Gust Speed Precip Events Conditions
12:53 AM 68.0 °F 61.0 °F 78% 29.87 in 10.0 mi South 8.1 mph - 0.03 in Rain Light Rain
1:03 AM 66.2 °F 60.8 °F 83% 29.92 in 2.0 mi SE 13.8 mph 23.0 mph 0.16 in Rain Heavy Rain
1:10 AM 60.8 °F 53.6 °F 77% 29.91 in 1.2 mi East 13.8 mph 23.0 mph 0.38 in Rain Heavy Rain
1:17 AM 60.8 °F 53.6 °F 77% 29.89 in 2.5 mi ENE 16.1 mph - 0.43 in Rain Rain
1:22 AM 60.8 °F 53.6 °F 77% 29.90 in 2.5 mi East 17.3 mph - 0.53 in Rain Heavy Rain
1:33 AM 60.8 °F 55.4 °F 82% 29.85 in 1.0 mi NE 18.4 mph - 0.98 in Rain Heavy Rain
1:43 AM 60.8 °F 55.4 °F 82% 29.85 in 3.0 mi ENE 23.0 mph - 1.02 in Rain Light Rain
1:50 AM 62.6 °F 57.2 °F 82% 29.84 in 9.0 mi ENE 26.5 mph - 1.02 in Rain Light Rain
1:53 AM 62.1 °F 57.0 °F 84% 29.82 in 9.0 mi ENE 25.3 mph - 1.02 in Rain Light Rain
2:09 AM 62.6 °F 55.4 °F 77% 29.82 in 10.0 mi ENE 26.5 mph 33.4 mph 0.00 in   Overcast
2:53 AM 62.1 °F 55.0 °F 78% 29.78 in 10.0 mi East 24.2 mph - 0.00 in   Overcast
3:53 AM 64.0 °F 55.9 °F 75% 29.80 in 10.0 mi ENE 16.1 mph - N/A   Overcast
4:41 AM 62.6 °F 57.2 °F 82% 29.79 in 2.5 mi ENE 20.7 mph - 0.26 in Rain Rain
4:49 AM 62.6 °F 57.2 °F 82% 29.81 in 4.0 mi NE 19.6 mph - 0.31 in Rain Light Rain
4:53 AM 63.0 °F 57.0 °F 81% 29.79 in 5.0 mi NE 19.6 mph - 0.33 in Rain Rain
5:07 AM 62.6 °F 57.2 °F 82% 29.79 in 1.8 mi ENE 21.9 mph - 0.27 in Rain Heavy Rain
5:14 AM 62.6 °F 57.2 °F 82% 29.79 in 3.0 mi ENE 20.7 mph - 0.28 in Rain Light Rain
5:39 AM 62.6 °F 59.0 °F 88% 29.78 in 8.0 mi ENE 20.7 mph - 0.32 in Rain Light Rain
5:53 AM 63.0 °F 59.0 °F 87% 29.75 in 9.0 mi ENE 24.2 mph - 0.33 in Rain Light Rain
6:41 AM 62.6 °F 60.8 °F 94% 29.75 in 7.0 mi ENE 23.0 mph 28.8 mph 0.15 in Rain Light Rain
6:53 AM 63.0 °F 60.1 °F 90% 29.71 in 10.0 mi East 25.3 mph 32.2 mph 0.15 in   Overcast
7:07 AM 64.4 °F 60.8 °F 88% 29.70 in 10.0 mi East 28.8 mph 33.4 mph N/A   Overcast
7:14 AM 64.4 °F 60.8 °F 88% 29.76 in 9.0 mi SW 8.1 mph 33.4 mph N/A   Overcast
7:29 AM 64.4 °F 60.8 °F 88% 29.77 in 2.5 mi Variable 4.6 mph 17.3 mph 0.10 in Rain Heavy Rain
7:33 AM 64.4 °F 60.8 °F 88% 29.83 in 1.8 mi NW 38.0 mph 46.0 mph 0.14 in Rain Heavy Rain
7:37 AM 62.6 °F 60.8 °F 94% 29.87 in 0.5 mi NW 40.3 mph 49.5 mph 0.48 in Fog , Rain Light Rain
7:44 AM 62.6 °F 60.8 °F 94% 29.86 in 0.2 mi North 29.9 mph 49.5 mph 1.06 in Fog , Rain Heavy Rain
7:48 AM 62.6 °F 60.8 °F 94% 29.81 in 0.5 mi North 34.5 mph 48.3 mph 1.32 in Fog , Rain Heavy Rain
7:53 AM 62.1 °F 60.1 °F 93% 29.76 in 0.5 mi North 32.2 mph 48.3 mph 1.66 in Fog , Rain Heavy Rain
7:57 AM 62.6 °F 60.8 °F 94% 29.81 in 0.5 mi North 26.5 mph 43.7 mph 0.03 in Fog , Rain Heavy Rain
8:08 AM 62.6 °F 60.8 °F 94% 29.81 in 1.5 mi NNE 29.9 mph 35.7 mph 0.15 in Rain Heavy Rain
8:19 AM 62.6 °F 60.8 °F 94% 29.83 in 1.2 mi NE 23.0 mph - 0.29 in Rain Rain
8:27 AM 62.6 °F 62.6 °F 100% 29.82 in 2.0 mi NNE 24.2 mph 29.9 mph 0.34 in Rain Heavy Rain
8:35 AM 62.6 °F 62.6 °F 100% 29.82 in 1.5 mi NNE 25.3 mph 31.1 mph 0.45 in Rain Heavy Rain
8:43 AM 62.6 °F 60.8 °F 94% 29.81 in 3.0 mi North 23.0 mph - 0.51 in Rain Rain
8:46 AM 62.6 °F 60.8 °F 94% 29.83 in 1.8 mi North 21.9 mph - 0.57 in Rain Heavy Rain
8:53 AM 63.0 °F 61.0 °F 93% 29.80 in 1.5 mi NNE 21.9 mph - 0.62 in Rain Rain
9:01 AM 62.6 °F 60.8 °F 94% 29.82 in 3.0 mi NNE 23.0 mph - 0.04 in Rain Light Rain
9:53 AM 64.0 °F 60.1 °F 87% 29.83 in 9.0 mi NE 23.0 mph - 0.10 in Rain Light Rain
10:53 AM 66.0 °F 60.1 °F 81% 29.84 in 10.0 mi ENE 25.3 mph 31.1 mph 0.00 in   Mostly Cloudy
11:53 AM 68.0 °F 59.0 °F 73% 29.80 in 10.0 mi East 24.2 mph - N/A   Scattered Clouds
12:53 PM 71.1 °F 57.9 °F 63% 29.79 in 10.0 mi East 19.6 mph 26.5 mph N/A   Partly Cloudy
1:53 PM 71.1 °F 60.1 °F 68% 29.77 in 10.0 mi East 15.0 mph - N/A   Clear
2:53 PM 71.6 °F 60.8 °F 69% 29.78 in 10.0 mi ESE 15.0 mph - N/A   Clear
3:53 PM 72.0 °F 62.1 °F 71% 29.76 in 10.0 mi East 11.5 mph - N/A   Scattered Clouds
4:01 PM 71.6 °F 60.8 °F 69% 29.78 in 10.0 mi ESE 12.7 mph - N/A   Mostly Cloudy
4:10 PM 71.6 °F 60.8 °F 69% 29.78 in 10.0 mi East 12.7 mph - N/A   Scattered Clouds
4:53 PM 70.0 °F 60.1 °F 71% 29.76 in 10.0 mi ESE 12.7 mph - N/A   Partly Cloudy
5:53 PM 70.0 °F 62.1 °F 76% 29.77 in 10.0 mi East 10.4 mph - N/A   Scattered Clouds
6:03 PM 69.8 °F 60.8 °F 73% 29.79 in 10.0 mi East 12.7 mph - N/A   Mostly Cloudy
6:53 PM 69.1 °F 61.0 °F 75% 29.77 in 10.0 mi East 11.5 mph - N/A   Overcast
7:00 PM 69.8 °F 60.8 °F 73% 29.79 in 10.0 mi East 8.1 mph - N/A   Overcast
7:29 PM 69.8 °F 62.6 °F 78% 29.78 in 10.0 mi East 6.9 mph - N/A   Mostly Cloudy
7:45 PM 69.8 °F 62.6 °F 78% 29.79 in 10.0 mi East 8.1 mph - N/A   Scattered Clouds
7:53 PM 69.1 °F 62.1 °F 78% 29.77 in 10.0 mi East 8.1 mph - N/A   Partly Cloudy
8:53 PM 68.0 °F 63.0 °F 84% 29.78 in 10.0 mi East 4.6 mph - N/A   Clear
9:53 PM 68.0 °F 63.0 °F 84% 29.81 in 10.0 mi East 5.8 mph - N/A   Clear
10:53 PM 66.9 °F 62.1 °F 84% 29.81 in 10.0 mi East 5.8 mph - N/A   Clear
11:53 PM 66.0 °F 62.1 °F 87% 29.81 in 10.0 mi East 5.8 mph - N/A   Clear